N5CNB Weather Reports


time (UTC)temp
F
wind
direction
speed
knots
gust
knots
rain 1hr
in
rain 24hr
in
rain mn
in
humidity
%
barometer
mb
20260506171515 80 86 0.9 3.5 0.00 0.00 0.00 83 1011.4
20260506170021 80 124 0.0 3.5 0.00 0.00 0.00 83 1011.6
20260506164504 80 135 0.0 1.7 0.00 0.00 0.00 82 1011.7
20260506163012 80 118 0.0 0.9 0.00 0.00 0.00 83 1011.7
20260506153005 78 89 3.5 5.2 0.00 0.00 0.00 84 1010.7
20260506143026 77 161 1.7 5.2 0.00 0.00 0.00 86 1010.3
20260506141506 76 98 0.9 3.5 0.00 0.00 0.00 87 1009.9
20260506140013 76 173 1.7 6.1 0.00 0.00 0.00 87 1009.8
20260506134515 76 128 0.0 3.5 0.00 0.00 0.00 88 1009.8
20260506133018 75 120 1.7 5.2 0.00 0.00 0.00 88 1009.9
20260506131522 75 99 2.6 5.2 0.00 0.00 0.00 89 1009.9
20260506130007 75 113 0.9 3.5 0.00 0.00 0.00 89 1009.9
20260506124512 74 162 0.9 2.6 0.00 0.00 0.00 90 1009.9
20260506123017 74 146 0.0 1.7 0.00 0.00 0.00 90 1009.9
20260506121518 74 153 0.0 0.9 0.00 0.00 0.00 90 1009.7
20260506120023 74 162 0.0 4.3 0.00 0.00 0.00 89 1009.5
20260506114512 74 181 0.9 4.3 0.00 0.00 0.00 89 1009.4
20260506113017 74 216 2.6 6.1 0.00 0.00 0.00 89 1009.2
20260506111517 74 137 2.6 6.1 0.00 0.00 0.00 89 1009.2
20260506110026 74 158 1.7 7.0 0.00 0.00 0.00 89 1009.1
20260506104525 74 231 3.5 8.7 0.00 0.00 0.00 89 1008.8
20260506103014 75 135 2.6 11.3 0.00 0.00 0.00 89 1008.5
20260506101519 75 129 3.5 11.3 0.00 0.00 0.00 89 1008.3
20260506100018 75 93 1.7 8.7 0.00 0.00 0.00 89 1008.3
20260506094506 75 132 3.5 8.7 0.00 0.00 0.00 89 1008.4
20260506093009 74 177 4.3 9.6 0.00 0.00 0.00 89 1008.3
20260506091516 74 270 3.5 8.7 0.00 0.00 0.00 89 1008.4
20260506090023 74 159 2.6 7.8 0.00 0.00 0.00 89 1008.3
20260506084521 74 147 4.3 10.4 0.00 0.00 0.00 89 1008.4
20260506083004 75 210 5.2 9.6 0.00 0.00 0.00 88 1008.5
20260506081512 75 141 4.3 11.3 0.00 0.00 0.00 88 1008.5
20260506073022 75 161 4.3 9.6 0.00 0.00 0.00 88 1009.0
20260506071508 75 216 4.3 10.4 0.00 0.00 0.00 88 1009.2
20260506061531 75 123 1.7 7.0 0.00 0.00 0.00 87 1009.5
20260506044511 76 233 3.5 7.0 0.00 0.00 0.00 86 1009.5
20260506043015 76 130 2.6 9.6 0.00 0.00 0.00 86 1009.3
20260506041519 76 214 2.6 9.6 0.00 0.00 0.00 86 1009.2
20260506040047 76 172 6.1 13.0 0.00 0.00 0.00 85 1009.0
20260506034524 76 219 4.3 10.4 0.00 0.00 0.00 85 1009.2
20260506033011 76 127 4.3 9.6 0.00 0.00 0.00 85 1009.0
20260506031533 77 179 1.7 8.7 0.00 0.00 0.00 85 1008.9
20260506030020 77 190 3.5 11.3 0.00 0.00 0.00 85 1008.7
20260506024526 77 207 2.6 11.3 0.00 0.00 0.00 84 1008.6
20260506023027 77 143 5.2 11.3 0.00 0.00 0.00 84 1008.3
20260506021514 77 191 6.1 11.3 0.00 0.00 0.00 84 1008.2
20260506020018 77 171 6.1 9.6 0.00 0.00 0.00 84 1008.1
20260506014524 77 136 4.3 10.4 0.00 0.00 0.00 84 1007.8
20260506013025 77 146 4.3 8.7 0.00 0.00 0.00 83 1007.5
20260506011527 78 210 3.5 8.7 0.00 0.00 0.00 83 1007.6
20260506010013 78 208 5.2 9.6 0.00 0.00 0.00 82 1007.4
20260506004525 78 152 6.1 12.2 0.00 0.00 0.00 82 1007.1
20260506003003 78 192 3.5 7.0 0.00 0.00 0.00 81 1007.1
20260506001501 79 136 4.3 12.2 0.00 0.00 0.00 80 1007.1
20260506000004 79 108 6.1 12.2 0.00 0.00 0.00 80 1006.9
20260505234504 80 152 6.1 13.0 0.00 0.00 0.00 80 1006.7
20260505233001 80 134 7.0 15.6 0.00 0.00 0.00 79 1006.8
20260505231500 80 125 6.1 12.2 0.00 0.00 0.00 79 1006.7
20260505230004 81 167 5.2 17.4 0.00 0.00 0.00 78 1006.7
20260505224503 81 207 5.2 12.2 0.00 0.00 0.00 78 1006.7
20260505223004 81 57 8.7 17.4 0.00 0.00 0.00 77 1006.8
20260505221507 82 156 7.8 15.6 0.00 0.00 0.00 76 1006.7
20260505220006 82 198 6.1 15.6 0.00 0.00 0.00 76 1006.8
20260505214506 82 51 7.8 16.5 0.00 0.00 0.00 75 1006.9
20260505213006 83 106 7.0 13.9 0.00 0.00 0.00 76 1007.2
20260505211504 83 226 8.7 16.5 0.00 0.00 0.00 75 1007.5
20260505210006 83 164 7.8 13.0 0.00 0.00 0.00 74 1007.5
20260505204505 82 144 9.6 15.6 0.00 0.00 0.00 77 1007.7
20260505203005 82 145 7.8 15.6 0.00 0.00 0.00 75 1008.0
20260505201507 83 128 4.3 15.6 0.00 0.00 0.00 76 1008.2
20260505200013 83 105 8.7 15.6 0.00 0.00 0.00 75 1008.3
20260505194506 83 181 5.2 13.0 0.00 0.00 0.00 75 1008.6
20260505193008 82 184 5.2 18.2 0.00 0.00 0.00 77 1008.8
20260505191507 81 153 8.7 14.8 0.00 0.00 0.00 78 1008.9
20260505190005 81 179 6.1 13.0 0.00 0.00 0.00 78 1009.0
20260505184506 82 208 5.2 10.4 0.00 0.00 0.00 77 1009.0
20260505183007 80 136 5.2 10.4 0.00 0.00 0.00 79 1009.1
20260505181508 80 153 7.0 13.9 0.00 0.00 0.00 80 1009.2
20260505180009 80 240 5.2 10.4 0.00 0.00 0.00 79 1009.2
20260505174505 81 160 5.2 11.3 0.00 0.00 0.00 79 1009.4